Location: Allen Lane School
(37.8198°N, 89.7382°W)
Time: 20:28:35
(UTC+00:00)

Sich 1 - Pass Details

Date: 08 December 2021
Orbit: 594 x 623 km, 82.5° (Epoch: 16 January)

Event Time Altitude Azimuth Distance (km) Brightness Sun altitude
Rises 12:23:53 0° 199° (SSW) 2,833 6.5 -7.6°
Reaches altitude 10° 12:26:09 10° 205° (SSW) 1,931 5.6 -7.2°
Maximum altitude 12:30:16 48° 280° (W) 785 3.2 -6.5°
Drops below altitude 10° 12:34:25 10° 355° (N) 1,937 5.3 -5.7°
Sets 12:36:41 0° 1° (N) 2,842 6.2 -5.3°
